[[{"header":{"parameterUnit":"m.s-1","parameterCategory":1,"la1":30.2991,"la2":30.254,"lo1":-89.0895,"lo2":-89.0444,"dy":0.0017,"dx":0.0017,"nx":28,"ny":28,"refTime":"2025-05-20T03:00:00:Z","depth":0,"parameterNumber":2,"parameterNumberName":"U-component_of_WINDS"},"data":[0,0,0,0,0,0,0,0,0,0,0,0,0,0,0,0,0,0,0,0,0,0,0,0,0,0,0,0,0,0,0,0,0,0,0,0,0,0,0,0,0,0,0,0,0,0,0,0,0,0,0,0,0,0,0,0,0,0,1.3756,1.3757,0,1.3836,1.3837,1.3838,1.3796,1.3794,1.3792,1.379,1.3873,1.3878,1.3882,0,0,0,0,0,0,0,0,0,0,0,0,0,1.3567,1.3571,1.3756,1.3757,1.3758,1.3836,1.3837,1.3839,1.3796,1.3794,1.3791,1.3789,1.3872,1.3877,1.3882,0,0,0,0,0,0,0,0,0,0,0,0,0,1.3649,1.3572,1.3756,1.3747,1.3747,1.3836,1.3837,1.3839,1.3797,1.3794,1.379,1.3787,1.387,1.3877,1.3883,1.3987,0,0,1.3902,1.3905,0,0,0,0,0,0,0,0,1.3644,1.3656,1.3747,1.3747,1.3748,1.3803,1.3801,1.3889,1.3798,1.3778,1.379,1.3786,1.3853,1.386,1.3883,1.3991,1.3994,1.3903,1.3907,1.3909,1.3911,0,0,0,0,0,0,0,1.3639,1.3652,1.3788,1.3748,1.3749,1.3739,1.3747,1.3818,1.3833,1.3779,1.3776,1.3786,1.3852,1.3877,1.3884,1.3996,1.3903,1.3908,1.3912,1.3915,1.4192,1.4196,0,0,0,0,0,0,1.3633,1.3648,1.3785,1.379,1.3687,1.3745,1.3754,1.3788,1.3832,1.3835,1.3789,1.3784,1.3867,1.3877,1.3887,1.4012,1.3909,1.3915,1.3919,1.4189,1.4193,1.4197,0,0,0,0,0,0,1.3629,1.3646,1.3782,1.3718,1.3735,1.3751,1.3791,1.3792,1.3816,1.3839,1.3841,1.3811,1.3865,1.3878,1.3962,1.4014,1.3918,1.3924,1.4185,1.419,1.4195,1.4262,0,0,0,0,0,0,1.3624,1.3645,1.3685,1.3719,1.3738,1.3856,1.3794,1.3796,1.3827,1.3821,1.386,1.3864,1.3864,1.3953,1.3968,1.4021,1.3929,1.418,1.4187,1.4194,1.4255,1.4269,1.428,0,0,0,0,0,1.3618,1.3701,1.3687,1.3704,1.3788,1.3859,1.387,1.3868,1.3831,1.3871,1.3886,1.3863,1.4005,1.3962,1.3979,1.4034,1.4177,1.4185,1.4193,1.4249,1.4266,1.428,0,0,0,0,0,0,1.3672,1.3705,1.369,1.3787,1.382,1.3852,1.3903,1.3885,1.3931,1.3924,1.3919,1.3928,1.4015,1.4033,1.3984,1.4137,1.4085,1.4097,1.4122,1.4138,1.4151,1.4145,1.3934,0,0,0,0,0,1.3695,1.375,1.3775,1.3858,1.3876,1.3886,1.3917,1.3912,1.3947,1.3961,1.3982,1.4017,1.407,1.4105,1.4155,1.4257,1.4265,1.4303,1.4315,1.4326,1.4337,1.4392,1.4409,1.4223,1.4223,1.4223,0,0,1.3744,1.3769,1.3803,1.387,1.3895,1.3952,1.3899,1.3961,1.4004,1.3971,1.4052,1.4068,1.4107,1.42,1.4242,1.4218,1.4389,1.4336,1.4344,1.4349,1.4402,1.4419,1.4435,1.4229,1.4228,1.4227,0,0,1.3862,1.3886,1.3957,1.3984,1.4023,1.4029,1.4046,1.408,1.4089,1.417,1.4146,1.4196,1.4287,1.4316,1.4342,1.4469,1.445,1.4486,1.4553,1.4606,1.4621,1.4634,1.468,1.4696,1.4496,1.4496,1.4496,0,1.3918,1.4002,1.3996,1.4061,1.4091,1.4063,1.4135,1.4161,1.4215,1.4236,1.4207,1.432,1.4344,1.4443,1.4474,1.4496,1.4516,1.4482,1.4619,1.4632,1.4644,1.4688,1.4705,1.45,1.45,1.4499,1.4499,0,1.4069,1.4128,1.4181,1.4233,1.4268,1.4337,1.4341,1.4378,1.4369,1.4379,1.4461,1.4488,1.4543,1.4566,1.4559,1.4664,1.4648,1.4619,1.4568,1.4666,1.4707,1.4723,1.4506,1.4505,1.4503,1.4502,0,0,1.4225,1.4272,1.4292,1.4315,1.4355,1.44,1.4467,1.4519,1.4551,1.4589,1.4644,1.4721,1.4694,1.4724,1.472,1.4767,1.4866,1.4732,1.4733,1.4757,1.4984,1.5007,1.5026,1.4852,1.4855,1.4858,1.4981,0,1.4347,1.4463,1.4459,1.4567,1.4622,1.4595,1.4653,1.4684,1.4694,1.4741,1.4752,1.4807,1.4767,1.4785,1.483,1.4844,1.4912,1.4835,1.4905,1.4907,1.4897,1.5047,1.5071,1.5187,1.4997,1.5,1.5002,0,1.4504,1.4546,1.466,1.4691,1.4714,1.4766,1.4814,1.4859,1.4894,1.4897,1.493,1.4918,1.4985,1.4931,1.5023,1.4971,1.4999,1.501,1.5014,1.5022,1.4962,1.506,1.5223,1.5241,1.5027,1.5025,1.5023,0,1.4607,1.4692,1.4771,1.4791,1.483,1.4867,1.4885,1.4916,1.4948,1.4989,1.501,1.5059,1.5086,1.5124,1.5125,1.5085,1.5219,1.5165,1.5224,1.5225,1.5255,1.5253,1.5427,1.5271,1.5271,1.5271,1.527,0,1.4744,1.4815,1.4818,1.4867,1.4945,1.494,1.5017,1.5032,1.5059,1.511,1.509,1.5138,1.5135,1.5184,1.5185,1.5262,1.5274,1.528,1.5279,1.5282,1.5282,1.5302,1.5294,1.5275,1.5274,1.5273,1.5273,0,1.4873,1.4878,1.4963,1.4992,1.5001,1.5058,1.5082,1.5129,1.5136,1.5201,1.5216,1.5228,1.5284,1.5288,1.5353,1.5354,1.5447,1.5437,1.5436,1.5434,1.5494,1.5489,1.5687,1.5713,1.554,1.5542,1.5543,0,1.4961,1.5015,1.5049,1.5082,1.5102,1.5154,1.5186,1.5182,1.5216,1.5259,1.53,1.5354,1.5397,1.5489,1.5503,1.5553,1.5545,1.5611,1.5552,1.5554,1.5547,1.5544,1.555,1.5623,1.5625,1.5626,1.5628,0,1.5115,1.5115,1.5162,1.521,1.5248,1.5286,1.5321,1.5348,1.5348,1.5388,1.5445,1.5478,1.5544,1.5599,1.5647,1.5665,1.5647,1.5645,1.5662,1.5666,1.5663,1.5666,1.5468,1.5641,1.564,1.5639,1.5638,1.5638,1.5227,1.5274,1.5305,1.5358,1.5383,1.5416,1.5461,1.5474,1.5521,1.5575,1.5569,1.5632,1.5664,1.5727,1.5749,1.5798,1.5776,1.58,1.5806,1.5813,1.5819,1.5654,1.5807,1.5807,1.5806,1.5806,1.5806,0,1.5382,1.54,1.5449,1.5498,1.5539,1.5517,1.5554,1.559,1.5646,1.5677,1.572,1.5785,1.5837,1.5855,1.5906,1.5942,1.5935,1.5956,1.5954,1.5958,1.5836,1.5817,1.596,1.596,1.596,1.596,1.596,1.596,1.5467,1.5544,1.5547,1.5637,1.5655,1.5717,1.574,1.577,1.5795,1.5869,1.5912,1.5923,1.5949,1.6001,1.6047,1.6051,1.6071,1.6096,1.6096,1.5982,1.5967,1.5952,1.5934,1.61,1.61,1.6214,1.6215,1.6216]},{"header":{"parameterUnit":"m.s-1","parameterCategory":1,"la1":30.2991,"la2":30.254,"lo1":-89.0895,"lo2":-89.0444,"dy":0.0017,"dx":0.0017,"nx":28,"ny":28,"refTime":"2025-05-20T03:00:00:Z","depth":0,"parameterNumber":3,"parameterNumberName":"V-component_of_WINDS"},"data":[0,0,0,0,0,0,0,0,0,0,0,0,0,0,0,0,0,0,0,0,0,0,0,0,0,0,0,0,0,0,0,0,0,0,0,0,0,0,0,0,0,0,0,0,0,0,0,0,0,0,0,0,0,0,0,0,0,0,6.9037,6.9038,0,6.909,6.909,6.9091,6.9037,6.9035,6.9033,6.9031,6.9078,6.9081,6.9085,0,0,0,0,0,0,0,0,0,0,0,0,0,6.8882,6.8886,6.9037,6.9038,6.9038,6.909,6.909,6.9091,6.9037,6.9035,6.9032,6.903,6.9077,6.9081,6.9085,0,0,0,0,0,0,0,0,0,0,0,0,0,6.8944,6.8887,6.9037,6.9018,6.9017,6.9089,6.909,6.9091,6.9038,6.9035,6.9031,6.9029,6.9076,6.9081,6.9085,6.9178,0,0,6.91,6.9102,0,0,0,0,0,0,0,0,6.894,6.8949,6.902,6.9019,6.9018,6.9054,6.9053,6.912,6.9039,6.903,6.9031,6.9027,6.9072,6.9077,6.9094,6.918,6.9182,6.91,6.9103,6.9105,6.9107,0,0,0,0,0,0,0,6.8936,6.8947,6.9057,6.9021,6.902,6.9004,6.9009,6.9066,6.9067,6.903,6.9026,6.9034,6.9071,6.9089,6.9094,6.9183,6.91,6.9105,6.9108,6.9109,6.9346,6.9349,0,0,0,0,0,0,6.8935,6.8944,6.9056,6.9059,6.8971,6.901,6.9015,6.9045,6.9067,6.9067,6.9036,6.9031,6.9082,6.9089,6.9096,6.9205,6.9105,6.911,6.9113,6.9342,6.9346,6.935,0,0,0,0,0,0,6.8932,6.8945,6.9054,6.9,6.9013,6.9016,6.9049,6.9048,6.9066,6.9072,6.9071,6.9055,6.908,6.9089,6.9158,6.9205,6.9112,6.9116,6.9338,6.9344,6.9348,6.9424,0,0,0,0,0,0,6.8928,6.8945,6.8982,6.9002,6.9016,6.9117,6.9052,6.9051,6.9075,6.9069,6.9089,6.9089,6.9078,6.9151,6.9163,6.921,6.912,6.9334,6.9341,6.9347,6.9417,6.9431,6.9442,0,0,0,0,0,6.8922,6.8999,6.8984,6.8998,6.9063,6.912,6.9128,6.9116,6.9079,6.9115,6.9118,6.9088,6.9199,6.9158,6.9171,6.9221,6.9331,6.9339,6.9346,6.9411,6.9428,6.9442,0,0,0,0,0,0,6.8982,6.9002,6.8984,6.9071,6.9095,6.9111,6.9156,6.9134,6.9167,6.916,6.9141,6.9146,6.9219,6.9227,6.9182,6.9311,6.9258,6.9269,6.9303,6.9319,6.9332,6.9328,6.9124,0,0,0,0,0,6.9006,6.9054,6.9067,6.9142,6.9155,6.9154,6.9178,6.9167,6.919,6.9199,6.9207,6.9229,6.9268,6.9294,6.933,6.9418,6.942,6.9458,6.9471,6.9481,6.949,6.9536,6.9553,6.9375,6.9375,6.9375,0,0,6.9055,6.9071,6.9102,6.9154,6.9171,6.9219,6.9162,6.9215,6.9249,6.9206,6.9272,6.9279,6.9301,6.938,6.9415,6.9388,6.954,6.9491,6.9499,6.9503,6.9546,6.9562,6.9577,6.938,6.9379,6.9378,0,0,6.9168,6.9186,6.925,6.9268,6.9296,6.9294,6.931,6.933,6.9333,6.94,6.9368,6.9407,6.9476,6.9493,6.9511,6.963,6.9603,6.9642,6.9709,6.9753,6.9767,6.978,6.9821,6.9837,6.9651,6.9651,6.9651,0,6.9224,6.9297,6.9285,6.934,6.9363,6.9329,6.9392,6.941,6.9447,6.9462,6.9433,6.9518,6.953,6.9612,6.9641,6.9657,6.9672,6.964,6.9767,6.9779,6.979,6.983,6.9845,6.9656,6.9655,6.9655,6.9654,0,6.9364,6.9415,6.9463,6.9502,6.953,6.9589,6.9584,6.9614,6.96,6.9601,6.9668,6.9682,6.9721,6.9739,6.9725,6.9819,6.9801,6.977,6.9717,6.9812,6.9849,6.9864,6.9662,6.9661,6.9659,6.9658,0,0,6.9517,6.9549,6.9566,6.9583,6.9611,6.9648,6.9705,6.9744,6.977,6.9796,6.9842,6.99,6.9871,6.9891,6.9879,6.9918,7.0011,6.9882,6.9882,6.9905,7.0113,7.0137,7.0155,6.9994,6.9996,6.9999,7.0111,0,6.963,6.9731,6.9721,6.9816,6.9862,6.9829,6.9878,6.9899,6.9901,6.9938,6.9939,6.9981,6.994,6.9952,6.999,6.9992,7.0053,6.9984,7.0034,7.0036,7.0029,7.0174,7.0199,7.0305,7.0126,7.0128,7.013,0,6.9776,6.981,6.991,6.993,6.9948,6.9993,7.0028,7.0065,7.0087,7.0085,7.0108,7.0089,7.0143,7.009,7.0163,7.0117,7.0137,7.0141,7.0145,7.0148,7.0089,7.0181,7.0338,7.0354,7.0152,7.0151,7.0149,0,6.9877,6.9947,7.0015,7.0031,7.0056,7.0088,7.0099,7.0119,7.0143,7.0173,7.0188,7.0223,7.0242,7.0269,7.0259,7.0221,7.0334,7.028,7.0333,7.0334,7.0358,7.0357,7.052,7.0372,7.0372,7.0372,7.0371,0,7.0004,7.0066,7.0061,7.0103,7.0171,7.0158,7.0225,7.0232,7.025,7.0291,7.0264,7.0303,7.0287,7.0325,7.0317,7.0379,7.0387,7.0387,7.0384,7.0389,7.0389,7.0401,7.0393,7.0376,7.0375,7.0374,7.0373,0,7.0128,7.0127,7.02,7.0218,7.0224,7.0273,7.0288,7.0326,7.0326,7.0379,7.039,7.039,7.0432,7.0425,7.0472,7.0466,7.0543,7.0531,7.0537,7.0534,7.0587,7.0582,7.0764,7.0787,7.0625,7.0626,7.0627,0,7.0209,7.0257,7.0281,7.0307,7.0322,7.0365,7.039,7.0379,7.0405,7.0434,7.0469,7.0509,7.0541,7.061,7.0612,7.0648,7.0636,7.0697,7.0641,7.0645,7.0636,7.0633,7.0637,7.0708,7.071,7.0712,7.0713,0,7.0354,7.0351,7.0389,7.0428,7.0459,7.0488,7.0514,7.0537,7.0527,7.0558,7.0603,7.0627,7.0676,7.0715,7.0748,7.0757,7.0733,7.0731,7.0745,7.075,7.0751,7.0751,7.0567,7.0726,7.0725,7.0724,7.0723,7.0723,7.0458,7.0499,7.0522,7.0565,7.0584,7.0609,7.0646,7.0651,7.0689,7.0729,7.0719,7.0768,7.0788,7.083,7.0843,7.088,7.0857,7.0877,7.0882,7.0888,7.0894,7.0746,7.0886,7.0885,7.0885,7.0884,7.0884,0,7.0601,7.0614,7.0654,7.0692,7.0726,7.0703,7.073,7.0759,7.0804,7.0825,7.0857,7.0907,7.0945,7.0951,7.0987,7.1016,7.1006,7.1026,7.1023,7.1025,7.0913,7.0897,7.1033,7.1033,7.1033,7.1033,7.1033,7.1033,7.0679,7.0746,7.0746,7.0821,7.0833,7.0883,7.09,7.0922,7.0939,7.0997,7.103,7.1034,7.1048,7.1085,7.1119,7.1119,7.1133,7.1158,7.1154,7.1048,7.1033,7.1019,7.1004,7.1161,7.1161,7.1263,7.1264,7.1265]}]]